Time,TemperatureF,DewpointF,PressureIn,WindDirection,WindDirectionDegrees,WindSpeedMPH,WindSpeedGustMPH,Humidity,HourlyPrecipIn,Conditions,Clouds,dailyrainin,SoftwareType,DateUTC
2013-06-23 00:01:00,75.0,71.0,30.10,East,95,3.0,6.0,85,-99.99,,,-99.99,,2013-06-23 04:01:00,
2013-06-23 00:11:00,75.0,71.0,30.10,East,95,3.0,6.0,85,-99.99,,,-99.99,,2013-06-23 04:11:00,
2013-06-23 00:31:00,74.0,70.0,30.11,SE,130,1.0,3.0,87,-99.99,,,-99.99,,2013-06-23 04:31:00,
2013-06-23 00:42:00,74.0,70.0,30.11,SSW,196,1.0,2.0,88,-99.99,,,-99.99,,2013-06-23 04:42:00,
2013-06-23 00:52:00,74.0,70.0,30.11,SSW,196,1.0,2.0,88,-99.99,,,-99.99,,2013-06-23 04:52:00,
2013-06-23 01:01:00,74.0,70.0,30.11,South,175,1.0,2.0,88,-99.99,,,-99.99,,2013-06-23 05:01:00,
2013-06-23 01:11:00,74.0,70.0,30.11,South,175,1.0,2.0,88,-99.99,,,-99.99,,2013-06-23 05:11:00,
2013-06-23 01:32:00,73.0,70.0,30.10,SE,128,2.0,3.0,89,-99.99,,,-99.99,,2013-06-23 05:32:00,
2013-06-23 01:41:00,72.0,69.0,30.10,ESE,115,3.0,3.0,89,-99.99,,,-99.99,,2013-06-23 05:41:00,
2013-06-23 01:52:00,72.0,69.0,30.10,SE,139,3.0,5.0,90,-99.99,,,-99.99,,2013-06-23 05:52:00,
2013-06-23 02:02:00,72.0,69.0,30.10,SE,139,3.0,5.0,90,-99.99,,,-99.99,,2013-06-23 06:02:00,
2013-06-23 02:12:00,72.0,69.0,30.09,SSE,149,3.0,5.0,91,-99.99,,,-99.99,,2013-06-23 06:12:00,
2013-06-23 02:22:00,72.0,69.0,30.09,SSE,149,3.0,5.0,91,-99.99,,,-99.99,,2013-06-23 06:22:00,
2013-06-23 02:33:00,72.0,69.0,30.09,SSE,149,3.0,5.0,91,-99.99,,,-99.99,,2013-06-23 06:33:00,
2013-06-23 02:43:00,72.0,69.0,30.09,SE,135,4.0,7.0,91,-99.99,,,-99.99,,2013-06-23 06:43:00,
2013-06-23 02:52:00,73.0,70.0,30.08,SE,130,5.0,7.0,91,-99.99,,,-99.99,,2013-06-23 06:52:00,
2013-06-23 03:02:00,73.0,70.0,30.08,SE,130,5.0,7.0,91,-99.99,,,-99.99,,2013-06-23 07:02:00,
2013-06-23 03:12:00,73.0,70.0,30.08,SE,133,5.0,7.0,91,-99.99,,,-99.99,,2013-06-23 07:12:00,
2013-06-23 03:22:00,73.0,70.0,30.08,SE,133,5.0,7.0,91,-99.99,,,-99.99,,2013-06-23 07:22:00,
2013-06-23 03:34:00,73.0,70.0,30.08,SE,133,5.0,7.0,91,-99.99,,,-99.99,,2013-06-23 07:34:00,
2013-06-23 03:43:00,72.0,70.0,30.08,SE,143,3.0,5.0,91,-99.99,,,-99.99,,2013-06-23 07:43:00,
2013-06-23 03:53:00,72.0,70.0,30.07,SE,133,3.0,4.0,92,-99.99,,,-99.99,,2013-06-23 07:53:00,
2013-06-23 04:02:00,72.0,70.0,30.07,SE,133,3.0,4.0,92,-99.99,,,-99.99,,2013-06-23 08:02:00,
2013-06-23 04:12:00,72.0,70.0,30.07,SE,133,3.0,4.0,92,-99.99,,,-99.99,,2013-06-23 08:12:00,
2013-06-23 04:22:00,72.0,70.0,30.07,SE,133,3.0,4.0,92,-99.99,,,-99.99,,2013-06-23 08:22:00,
2013-06-23 04:34:00,72.0,70.0,30.07,SE,133,3.0,4.0,92,-99.99,,,-99.99,,2013-06-23 08:34:00,
2013-06-23 04:43:00,72.0,70.0,30.07,ESE,114,4.0,5.0,93,-99.99,,,-99.99,,2013-06-23 08:43:00,
2013-06-23 04:53:00,72.0,70.0,30.07,ESE,116,2.0,4.0,93,-99.99,,,-99.99,,2013-06-23 08:53:00,
2013-06-23 05:02:00,72.0,70.0,30.07,ESE,119,2.0,3.0,93,-99.99,,,-99.99,,2013-06-23 09:02:00,
2013-06-23 05:12:00,72.0,70.0,30.07,ESE,119,2.0,3.0,93,-99.99,,,-99.99,,2013-06-23 09:12:00,
2013-06-23 05:34:00,72.0,70.0,30.07,ESE,117,2.0,3.0,93,-99.99,,,-99.99,,2013-06-23 09:34:00,
2013-06-23 05:43:00,72.0,70.0,30.06,East,91,2.0,2.0,93,-99.99,,,-99.99,,2013-06-23 09:43:00,
2013-06-23 05:54:00,72.0,70.0,30.07,SSE,148,2.0,3.0,94,-99.99,,,-99.99,,2013-06-23 09:54:00,
2013-06-23 06:02:00,72.0,70.0,30.07,SSE,148,2.0,3.0,94,-99.99,,,-99.99,,2013-06-23 10:02:00,
2013-06-23 06:11:00,72.0,70.0,30.07,SSE,153,2.0,3.0,94,-99.99,,,-99.99,,2013-06-23 10:11:00,
2013-06-23 06:22:00,72.0,70.0,30.07,SSE,153,2.0,3.0,94,-99.99,,,-99.99,,2013-06-23 10:22:00,
2013-06-23 06:34:00,72.0,70.0,30.07,SSE,153,2.0,3.0,94,-99.99,,,-99.99,,2013-06-23 10:34:00,
2013-06-23 06:43:00,72.0,70.0,30.07,SSE,151,1.0,2.0,94,-99.99,,,-99.99,,2013-06-23 10:43:00,
2013-06-23 06:53:00,72.0,70.0,30.07,ESE,108,2.0,4.0,94,-99.99,,,-99.99,,2013-06-23 10:53:00,
2013-06-23 07:02:00,72.0,70.0,30.07,ESE,108,2.0,4.0,94,-99.99,,,-99.99,,2013-06-23 11:02:00,
2013-06-23 07:11:00,72.0,71.0,30.08,ESE,118,2.0,4.0,94,-99.99,,,-99.99,,2013-06-23 11:11:00,
2013-06-23 07:22:00,72.0,71.0,30.08,ESE,118,2.0,4.0,94,-99.99,,,-99.99,,2013-06-23 11:22:00,
2013-06-23 07:33:00,72.0,71.0,30.08,ESE,110,2.0,3.0,94,-99.99,,,-99.99,,2013-06-23 11:33:00,
2013-06-23 07:43:00,72.0,71.0,30.08,ESE,110,2.0,3.0,94,-99.99,,,-99.99,,2013-06-23 11:43:00,
2013-06-23 07:53:00,73.0,71.0,30.09,East,99,2.0,3.0,94,-99.99,,,-99.99,,2013-06-23 11:53:00,
2013-06-23 08:01:00,74.0,72.0,30.09,SE,138,2.0,4.0,94,-99.99,,,-99.99,,2013-06-23 12:01:00,
2013-06-23 08:12:00,74.0,72.0,30.09,SE,138,2.0,4.0,94,-99.99,,,-99.99,,2013-06-23 12:12:00,
2013-06-23 08:33:00,77.0,73.0,30.09,ESE,117,4.0,8.0,89,-99.99,,,-99.99,,2013-06-23 12:33:00,
2013-06-23 08:42:00,78.0,74.0,30.10,ESE,108,4.0,8.0,86,-99.99,,,-99.99,,2013-06-23 12:42:00,
2013-06-23 08:53:00,78.0,74.0,30.10,ESE,108,4.0,8.0,86,-99.99,,,-99.99,,2013-06-23 12:53:00,
2013-06-23 09:02:00,79.0,74.0,30.10,ESE,108,5.0,8.0,85,-99.99,,,-99.99,,2013-06-23 13:02:00,
2013-06-23 09:11:00,79.0,74.0,30.10,ESE,108,5.0,8.0,85,-99.99,,,-99.99,,2013-06-23 13:11:00,
2013-06-23 09:34:00,80.0,74.0,30.11,ESE,112,5.0,8.0,83,-99.99,,,-99.99,,2013-06-23 13:34:00,
2013-06-23 09:43:00,80.0,75.0,30.10,ESE,115,5.0,8.0,81,-99.99,,,-99.99,,2013-06-23 13:43:00,
2013-06-23 09:54:00,81.0,74.0,30.11,SE,134,5.0,11.0,79,-99.99,,,-99.99,,2013-06-23 13:54:00,
2013-06-23 10:05:00,81.0,74.0,30.11,SE,134,5.0,11.0,79,-99.99,,,-99.99,,2013-06-23 14:05:00,
2013-06-23 10:11:00,82.0,75.0,30.10,SE,143,5.0,11.0,78,-99.99,,,-99.99,,2013-06-23 14:11:00,
2013-06-23 10:22:00,82.0,75.0,30.10,SE,143,5.0,11.0,78,-99.99,,,-99.99,,2013-06-23 14:22:00,
2013-06-23 10:34:00,82.0,75.0,30.10,SE,143,5.0,11.0,78,-99.99,,,-99.99,,2013-06-23 14:34:00,
2013-06-23 10:44:00,82.0,74.0,30.11,SSE,159,7.0,12.0,76,-99.99,,,-99.99,,2013-06-23 14:44:00,
2013-06-23 10:52:00,82.0,74.0,30.10,SSE,154,6.0,11.0,74,-99.99,,,-99.99,,2013-06-23 14:52:00,
2013-06-23 11:05:00,82.0,74.0,30.10,SSE,154,6.0,11.0,74,-99.99,,,-99.99,,2013-06-23 15:05:00,
2013-06-23 11:12:00,82.0,72.0,30.10,SSE,160,6.0,10.0,71,-99.99,,,-99.99,,2013-06-23 15:12:00,
2013-06-23 11:23:00,82.0,72.0,30.10,SSE,160,6.0,10.0,71,-99.99,,,-99.99,,2013-06-23 15:23:00,
2013-06-23 11:35:00,82.0,72.0,30.10,SSE,160,6.0,10.0,71,-99.99,,,-99.99,,2013-06-23 15:35:00,
2013-06-23 11:43:00,83.0,73.0,30.10,SSE,162,4.0,8.0,71,-99.99,,,-99.99,,2013-06-23 15:43:00,
2013-06-23 11:53:00,84.0,72.0,30.10,South,170,4.0,8.0,67,-99.99,,,-99.99,,2013-06-23 15:53:00,
2013-06-23 12:06:00,84.0,72.0,30.10,South,170,4.0,8.0,67,-99.99,,,-99.99,,2013-06-23 16:06:00,
2013-06-23 12:12:00,85.0,73.0,30.10,SSE,164,4.0,8.0,67,-99.99,,,-99.99,,2013-06-23 16:12:00,
2013-06-23 12:22:00,85.0,73.0,30.10,SSE,164,4.0,8.0,67,-99.99,,,-99.99,,2013-06-23 16:22:00,
2013-06-23 12:36:00,85.0,73.0,30.10,SSE,164,4.0,8.0,67,-99.99,,,-99.99,,2013-06-23 16:36:00,
2013-06-23 12:43:00,84.0,71.0,30.10,ESE,110,3.0,6.0,64,-99.99,,,-99.99,,2013-06-23 16:43:00,
2013-06-23 12:53:00,86.0,73.0,30.10,East,95,3.0,6.0,66,-99.99,,,-99.99,,2013-06-23 16:53:00,
2013-06-23 13:06:00,86.0,73.0,30.10,East,95,3.0,6.0,66,-99.99,,,-99.99,,2013-06-23 17:06:00,
2013-06-23 13:12:00,86.0,74.0,30.10,East,99,3.0,6.0,65,-99.99,,,-99.99,,2013-06-23 17:12:00,
2013-06-23 13:22:00,86.0,74.0,30.10,East,99,3.0,6.0,65,-99.99,,,-99.99,,2013-06-23 17:22:00,
2013-06-23 13:33:00,86.0,74.0,30.10,East,99,3.0,6.0,65,-99.99,,,-99.99,,2013-06-23 17:33:00,
2013-06-23 13:43:00,85.0,73.0,30.10,SSE,156,4.0,7.0,65,-99.99,,,-99.99,,2013-06-23 17:43:00,
2013-06-23 13:53:00,85.0,71.0,30.10,ESE,111,6.0,16.0,63,-99.99,,,-99.99,,2013-06-23 17:53:00,
2013-06-23 14:01:00,85.0,71.0,30.10,ESE,111,6.0,16.0,63,-99.99,,,-99.99,,2013-06-23 18:01:00,
2013-06-23 14:34:00,81.0,72.0,30.10,ENE,75,11.0,21.0,74,-99.99,,,-99.99,,2013-06-23 18:34:00,
2013-06-23 15:01:00,77.0,72.0,30.10,NE,50,16.0,22.0,83,-99.99,,,-99.99,,2013-06-23 19:01:00,
2013-06-23 15:11:00,77.0,72.0,30.10,ENE,71,12.0,20.0,82,-99.99,,,-99.99,,2013-06-23 19:11:00,
2013-06-23 15:21:00,77.0,72.0,30.10,ENE,71,12.0,20.0,82,-99.99,,,-99.99,,2013-06-23 19:21:00,
2013-06-23 15:32:00,77.0,72.0,30.10,ENE,71,12.0,20.0,82,-99.99,,,-99.99,,2013-06-23 19:32:00,
2013-06-23 15:43:00,77.0,71.0,30.09,East,94,8.0,13.0,82,-99.99,,,-99.99,,2013-06-23 19:43:00,
2013-06-23 15:53:00,77.0,72.0,30.10,SSE,164,9.0,13.0,84,-99.99,,,-99.99,,2013-06-23 19:53:00,
2013-06-23 16:02:00,77.0,72.0,30.10,SSE,164,9.0,13.0,84,-99.99,,,-99.99,,2013-06-23 20:02:00,
2013-06-23 16:12:00,75.0,71.0,30.10,South,176,7.0,11.0,87,-99.99,,,-99.99,,2013-06-23 20:12:00,
2013-06-23 16:24:00,75.0,71.0,30.10,South,176,7.0,11.0,87,-99.99,,,-99.99,,2013-06-23 20:24:00,
2013-06-23 16:33:00,75.0,71.0,30.10,South,176,7.0,11.0,87,-99.99,,,-99.99,,2013-06-23 20:33:00,
2013-06-23 16:42:00,75.0,71.0,30.10,SSE,168,4.0,8.0,89,-99.99,,,-99.99,,2013-06-23 20:42:00,
2013-06-23 16:53:00,74.0,71.0,30.09,ESE,120,2.0,5.0,90,-99.99,,,-99.99,,2013-06-23 20:53:00,
2013-06-23 17:01:00,75.0,72.0,30.08,ENE,65,3.0,6.0,90,-99.99,,,-99.99,,2013-06-23 21:01:00,
2013-06-23 17:12:00,75.0,72.0,30.08,ENE,65,3.0,6.0,90,-99.99,,,-99.99,,2013-06-23 21:12:00,
2013-06-23 17:34:00,76.0,73.0,30.09,SE,124,4.0,7.0,91,-99.99,,,-99.99,,2013-06-23 21:34:00,
2013-06-23 17:44:00,76.0,73.0,30.10,ESE,111,2.0,5.0,91,-99.99,,,-99.99,,2013-06-23 21:44:00,
2013-06-23 17:52:00,76.0,73.0,30.10,ESE,111,2.0,5.0,91,-99.99,,,-99.99,,2013-06-23 21:52:00,
2013-06-23 18:01:00,76.0,74.0,30.09,ENE,64,3.0,6.0,90,-99.99,,,-99.99,,2013-06-23 22:01:00,
2013-06-23 18:12:00,76.0,74.0,30.09,ENE,64,3.0,6.0,90,-99.99,,,-99.99,,2013-06-23 22:12:00,
2013-06-23 18:32:00,77.0,74.0,30.09,ENE,71,5.0,7.0,90,-99.99,,,-99.99,,2013-06-23 22:32:00,
2013-06-23 18:43:00,77.0,74.0,30.08,East,84,5.0,9.0,89,-99.99,,,-99.99,,2013-06-23 22:43:00,
2013-06-23 18:53:00,77.0,74.0,30.08,East,84,5.0,9.0,89,-99.99,,,-99.99,,2013-06-23 22:53:00,
2013-06-23 19:01:00,78.0,74.0,30.08,ENE,78,5.0,8.0,89,-99.99,,,-99.99,,2013-06-23 23:01:00,
2013-06-23 19:11:00,78.0,74.0,30.08,ENE,78,5.0,8.0,89,-99.99,,,-99.99,,2013-06-23 23:11:00,
2013-06-23 19:33:00,78.0,74.0,30.08,East,83,6.0,10.0,86,-99.99,,,-99.99,,2013-06-23 23:33:00,
2013-06-23 19:44:00,78.0,74.0,30.09,East,80,6.0,10.0,86,-99.99,,,-99.99,,2013-06-23 23:44:00,
2013-06-23 19:52:00,78.0,74.0,30.09,East,80,6.0,10.0,86,-99.99,,,-99.99,,2013-06-23 23:52:00,
2013-06-23 20:01:00,78.0,74.0,30.09,East,89,6.0,12.0,86,-99.99,,,-99.99,,2013-06-24 00:01:00,
2013-06-23 20:11:00,78.0,74.0,30.09,East,89,6.0,12.0,86,-99.99,,,-99.99,,2013-06-24 00:11:00,
2013-06-23 20:33:00,78.0,74.0,30.08,ESE,102,6.0,12.0,85,-99.99,,,-99.99,,2013-06-24 00:33:00,
2013-06-23 20:42:00,78.0,73.0,30.08,East,100,6.0,11.0,85,-99.99,,,-99.99,,2013-06-24 00:42:00,
2013-06-23 20:52:00,78.0,73.0,30.08,East,100,6.0,11.0,85,-99.99,,,-99.99,,2013-06-24 00:52:00,
2013-06-23 21:02:00,77.0,73.0,30.09,East,99,4.0,7.0,85,-99.99,,,-99.99,,2013-06-24 01:02:00,
2013-06-23 21:11:00,77.0,73.0,30.09,East,99,4.0,7.0,85,-99.99,,,-99.99,,2013-06-24 01:11:00,
2013-06-23 21:32:00,76.0,71.0,30.10,East,93,3.0,7.0,84,-99.99,,,-99.99,,2013-06-24 01:32:00,
2013-06-23 21:42:00,76.0,71.0,30.10,ESE,104,4.0,8.0,86,-99.99,,,-99.99,,2013-06-24 01:42:00,
2013-06-23 21:53:00,76.0,71.0,30.10,ESE,104,4.0,8.0,86,-99.99,,,-99.99,,2013-06-24 01:53:00,
2013-06-23 22:02:00,76.0,72.0,30.11,East,97,5.0,8.0,87,-99.99,,,-99.99,,2013-06-24 02:02:00,
2013-06-23 22:11:00,76.0,72.0,30.11,East,97,5.0,8.0,87,-99.99,,,-99.99,,2013-06-24 02:11:00,
2013-06-23 22:33:00,76.0,72.0,30.12,East,92,5.0,9.0,88,-99.99,,,-99.99,,2013-06-24 02:33:00,
2013-06-23 22:42:00,76.0,72.0,30.12,East,82,4.0,7.0,88,-99.99,,,-99.99,,2013-06-24 02:42:00,
2013-06-23 22:53:00,76.0,72.0,30.12,East,82,4.0,7.0,88,-99.99,,,-99.99,,2013-06-24 02:53:00,
2013-06-23 23:01:00,76.0,73.0,30.13,East,86,3.0,6.0,89,-99.99,,,-99.99,,2013-06-24 03:01:00,
2013-06-23 23:11:00,76.0,73.0,30.13,East,86,3.0,6.0,89,-99.99,,,-99.99,,2013-06-24 03:11:00,
2013-06-23 23:33:00,76.0,73.0,30.13,East,96,3.0,6.0,90,-99.99,,,-99.99,,2013-06-24 03:33:00,
2013-06-23 23:43:00,75.0,72.0,30.14,East,99,3.0,5.0,90,-99.99,,,-99.99,,2013-06-24 03:43:00,
2013-06-23 23:53:00,74.0,71.0,30.14,ESE,116,3.0,5.0,90,-99.99,,,-99.99,,2013-06-24 03:53:00,